Theta_e
307 308 307 307 307 305 306 306 305 303 303 303 302 303 302 301 300 299 297 296 295 295 295 295 294 294 293 292 291 293 293 293 293 292 292 292 293 293 291 290 289 288 288 287
307 309 306 305 305 305 306 305 304 303 302 303 304 303 302 301 300 299 298 297 296 296 295 295 294 294 293 292 291 292 293 292 291 291 290 291 291 291 290 290 289 288 287 287
309 306 304 305 304 305 305 306 303 305 302 302 304 302 302 301 300 300 299 297 296 295 295 293 293 293 292 292 291 291 293 291 290 290 290 290 290 290 290 289 289 288 287 286
306 304 304 304 304 304 304 303 304 303 302 306 302 307 303 301 300 298 298 295 294 293 293 293 292 292 292 292 292 292 292 289 289 289 288 288 288 289 289 288 288 288 287 286
305 304 303 305 304 305 306 304 304 304 303 304 302 301 303 302 300 298 297 295 294 292 292 291 291 291 292 292 292 291 290 288 288 288 287 287 286 287 287 286 286 286 286 286
303 302 303 304 303 304 303 303 303 303 302 303 304 301 304 302 301 299 297 296 294 291 290 291 291 291 292 292 290 289 289 287 287 287 286 285 285 285 285 284 284 284 284 284
303 303 302 303 303 303 303 303 310 309 303 306 301 302 302 303 301 301 298 296 292 291 290 290 291 291 291 290 289 288 287 286 286 285 284 284 283 283 283 283 282 283 283 283
305 305 302 303 304 303 302 305 313 311 311 308 299 300 300 300 300 301 298 295 292 290 290 290 291 291 290 288 287 287 286 285 284 284 283 282 282 281 281 281 281 281 281 281
304 304 300 300 301 301 302 300 301 299 292 300 304 302 299 299 298 298 296 293 291 290 290 290 291 290 288 287 286 285 285 284 283 282 282 281 281 280 280 280 280 279 280 280
304 303 301 299 300 300 300 298 297 301 304 305 307 304 302 298 297 295 294 292 290 290 290 290 290 288 287 286 285 285 284 283 282 281 281 280 280 279 279 279 279 279 279 279
303 304 300 300 300 301 298 300 300 302 304 307 307 305 300 299 297 295 294 292 291 289 289 289 289 287 286 285 284 284 283 282 281 280 279 279 278 278 277 277 277 277 277 278
302 304 300 300 296 296 299 300 299 304 302 300 302 300 297 298 298 296 294 293 291 289 289 289 288 286 285 284 283 282 281 280 279 278 277 277 276 275 274 274 273 274 274 276
299 304 299 303 297 296 297 299 300 296 297 298 300 305 295 295 297 296 294 292 290 289 288 288 287 286 285 283 282 281 279 278 277 276 275 274 273 272 272 271 272 272 272 274
302 303 307 312 309 298 296 297 299 296 297 298 302 303 296 294 294 295 294 291 289 289 288 287 286 286 284 283 281 279 277 276 275 274 273 272 271 271 271 271 271 271 271 272
298 297 295 298 297 299 300 298 298 297 299 299 304 302 302 297 295 295 293 290 289 289 288 287 286 285 283 281 279 277 275 274 273 273 272 271 270 270 270 271 271 271 271 272
296 299 296 294 296 295 296 296 297 298 298 297 299 300 302 300 294 294 293 291 290 290 289 287 287 285 283 281 278 276 274 273 273 272 271 270 270 270 270 270 270 270 270 271
294 295 296 301 295 294 294 295 296 297 296 299 299 301 298 295 295 294 292 291 290 290 288 287 285 284 281 279 277 275 273 273 272 272 270 270 270 270 270 270 270 269 270 270
296 298 301 299 297 311 305 295 298 299 299 298 299 299 298 293 295 293 293 292 290 289 287 285 283 282 280 277 275 273 272 272 272 271 270 270 270 270 270 270 269 269 269 270
293 300 302 303 304 308 307 292 292 292 297 296 299 299 295 292 290 291 292 291 290 288 287 285 282 281 279 276 274 272 272 272 272 271 270 270 270 270 270 270 269 269 269 270
294 295 305 304 305 305 302 293 293 294 298 296 295 296 290 290 293 296 291 289 287 287 284 280 280 279 276 273 272 272 272 272 271 270 270 270 270 270 270 269 269 269 270 270
296 296 305 309 310 305 298 290 292 299 307 295 294 294 290 292 294 288 289 287 285 281 278 279 278 276 275 273 272 272 271 271 271 270 270 270 270 270 270 269 269 269 270 271
301 302 303 307 310 310 290 289 299 298 292 293 292 292 291 288 286 286 283 279 277 275 275 275 274 273 272 271 272 271 271 271 271 270 270 270 270 270 270 270 270 270 270 270
304 303 302 305 307 295 291 293 292 289 290 290 292 292 289 286 284 282 280 277 276 274 272 273 273 271 270 271 272 271 271 271 270 270 270 270 270 270 270 270 269 269 269 270
294 295 301 301 300 295 291 290 291 288 288 287 289 287 286 285 283 281 279 277 276 274 273 272 271 269 268 270 271 272 271 271 270 270 270 270 270 270 269 270 269 269 269 269
296 297 299 296 296 292 290 292 291 288 286 286 285 283 284 284 283 281 279 277 276 274 273 272 271 270 270 270 270 271 271 271 270 270 270 270 270 270 269 269 269 269 269 270
293 297 301 304 299 299 297 294 290 287 286 285 285 284 284 283 282 280 279 277 276 274 272 272 271 271 270 270 270 271 271 270 270 269 269 269 269 269 269 269 269 269 270 270
Wind_Speed
2 2 4 9 2 2 3 7 7 5 1 4 6 7 9 8 8 8 8 8 7 6 5 2 2 3 5 8 10 12 16 19 20 22 23 25 23 21 23 24 25 30 32 36
1 0 4 6 3 2 2 9 5 5 0 2 4 8 9 10 9 8 9 8 7 5 5 4 2 3 6 7 9 11 15 17 19 21 20 21 21 20 22 23 27 29 31 33
1 4 3 3 4 5 5 3 5 3 5 5 2 7 11 10 8 6 6 7 6 6 4 5 4 8 6 8 8 10 14 16 18 20 20 21 20 19 22 26 28 29 29 31
4 2 3 4 5 4 3 5 8 8 6 2 6 4 8 13 12 9 8 7 8 8 5 4 5 6 6 7 8 10 13 15 17 18 20 21 22 21 22 24 25 27 28 30
3 4 2 3 4 1 4 1 5 4 2 2 4 1 6 15 15 16 13 10 9 9 6 5 5 4 7 7 8 10 12 14 16 17 18 20 21 21 21 25 26 28 29 30
3 3 4 3 4 2 9 8 5 4 2 1 7 7 5 8 19 14 14 13 10 9 8 8 7 5 8 7 8 9 12 13 15 16 18 19 20 20 22 26 26 28 28 31
4 3 2 7 7 1 3 3 2 2 1 5 4 2 8 7 6 13 17 14 10 9 7 8 8 8 8 8 7 9 10 13 14 16 16 17 18 18 20 23 24 26 28 30
6 3 8 6 1 6 7 3 3 6 4 3 3 6 6 4 7 5 13 13 10 9 7 8 9 10 8 6 7 9 11 12 13 14 15 16 17 19 19 21 22 24 25 26
6 3 3 5 3 2 4 3 1 5 2 3 5 5 4 4 4 4 10 11 10 9 8 8 10 10 9 6 6 7 8 10 11 12 14 16 18 19 19 20 21 23 25 27
4 5 1 1 2 3 1 4 4 2 3 5 3 1 8 7 10 9 10 10 10 9 9 9 13 11 9 6 6 5 6 8 9 12 13 14 17 18 19 19 22 24 25 27
4 5 3 4 7 8 2 2 1 0 3 5 2 5 5 13 17 18 15 12 12 11 9 9 15 12 10 7 6 5 5 7 9 11 13 15 17 18 20 21 22 24 24 25
3 5 4 5 2 4 2 6 6 4 6 2 2 7 2 5 13 15 14 14 11 12 10 14 18 16 12 9 6 5 4 6 9 12 13 16 19 20 21 24 25 24 25 24
7 2 3 2 1 1 6 6 5 4 2 5 4 6 2 2 2 9 11 10 9 12 11 12 17 17 14 10 7 5 3 4 8 12 14 17 17 18 21 23 24 24 24 23
4 3 7 8 5 6 6 9 13 7 3 5 14 11 5 6 8 8 10 10 11 11 12 9 11 16 16 13 9 5 0 5 8 10 12 14 16 18 21 22 23 23 22 22
4 6 3 1 3 3 4 5 14 12 23 9 18 18 26 14 14 13 10 10 13 13 13 12 10 17 19 15 10 5 0 4 6 8 10 13 16 18 19 22 23 23 21 21
2 3 3 3 4 4 3 6 10 21 14 18 23 23 3 8 8 9 11 16 16 15 15 13 15 19 19 18 11 6 1 2 4 6 9 12 15 17 20 22 24 23 23 23
7 6 4 4 0 0 3 17 21 18 8 20 17 27 9 7 14 17 15 18 19 18 16 15 15 20 22 19 13 8 5 4 3 5 8 11 14 17 20 22 24 25 25 23
6 6 3 3 1 9 1 3 18 19 21 22 19 21 6 8 11 9 15 20 17 16 16 15 20 24 23 20 14 10 8 5 4 4 7 10 13 15 19 22 23 25 24 24
2 5 3 4 5 11 13 7 9 10 11 25 27 28 7 5 5 6 10 15 18 17 23 24 28 31 25 21 16 14 10 6 5 3 5 9 11 15 19 22 22 23 24 24
2 2 2 4 4 8 1 2 5 8 11 19 19 24 10 10 7 10 16 13 12 23 27 31 33 30 26 21 18 15 12 8 5 2 4 7 9 13 17 19 19 20 20 21
4 1 13 11 7 10 7 9 5 6 9 2 10 11 14 11 8 2 12 12 22 26 32 35 35 33 27 23 20 17 13 10 7 4 4 6 8 11 13 16 16 17 19 20
12 11 7 6 8 20 8 4 10 6 2 3 3 8 12 8 9 12 11 14 19 24 28 33 33 30 26 24 21 18 14 11 9 6 4 5 7 9 12 15 15 15 17 18
9 9 9 13 10 3 20 7 8 3 4 4 4 4 12 12 7 13 13 15 19 25 27 31 33 30 26 24 21 20 16 14 11 9 7 6 5 7 9 11 13 13 16 16
4 4 4 4 10 11 15 4 5 6 4 2 3 7 13 12 15 12 14 14 19 24 26 28 30 26 27 26 20 17 18 16 13 11 9 6 5 5 7 8 9 9 12 16
7 14 11 7 5 3 5 13 6 7 5 5 2 4 8 16 14 16 15 15 21 24 25 28 27 26 27 29 23 20 20 18 16 12 9 7 4 3 5 6 7 8 8 11
7 10 13 14 11 13 8 21 13 13 12 10 9 8 8 10 16 13 14 22 26 26 27 26 26 27 29 30 27 24 22 20 18 14 11 8 6 3 2 4 5 4 5 9
Wind_Direction
10 175 185 194 200 27 272 135 151 73 110 227 219 153 182 205 204 184 177 180 165 154 160 142 83 36 27 27 24 21 19 15 11 7 2 357 355 355 357 359 3 11 8 8
183 138 75 55 71 225 250 128 98 64 96 328 196 211 192 191 215 196 190 188 157 162 145 105 58 56 42 35 23 17 18 17 12 7 2 359 353 352 354 354 360 9 12 10
117 63 93 138 150 160 21 138 159 128 156 264 184 260 199 197 209 198 206 166 137 166 170 107 61 34 48 34 24 14 17 18 12 5 2 1 358 356 357 353 355 2 8 10
64 131 171 155 121 24 109 340 102 132 154 222 174 278 199 197 207 202 207 187 182 172 177 126 62 43 59 42 25 19 22 21 13 9 7 5 359 355 353 352 353 1 4 6
128 140 217 164 49 2 146 143 112 145 218 39 194 287 271 180 210 209 200 193 186 164 165 128 84 59 76 51 33 26 27 20 11 12 11 7 0 359 356 360 1 4 2 2
85 332 22 86 86 81 146 113 93 72 54 342 215 174 233 181 218 202 194 189 168 156 165 133 114 99 86 63 39 32 33 19 12 11 9 8 4 4 3 2 3 1 1 0
125 116 56 146 87 29 294 151 55 348 9 225 19 236 260 206 176 197 188 174 158 150 169 132 121 110 88 66 47 43 33 22 12 7 9 6 5 9 7 4 2 2 359 359
151 243 164 196 260 174 201 205 181 206 195 211 113 231 254 343 141 166 161 155 148 153 138 142 135 117 107 84 57 47 33 23 11 4 4 1 4 8 6 3 3 2 -0 357
164 112 35 13 359 14 175 194 59 97 54 54 217 267 300 161 137 117 139 147 152 158 154 149 143 128 112 101 70 52 31 20 6 3 0 358 358 1 1 357 360 359 360 358
149 107 169 118 298 22 9 158 92 336 198 258 253 242 243 209 200 181 174 167 161 162 153 148 151 140 126 121 95 62 35 21 4 358 2 355 350 350 349 350 352 352 353 355
128 110 117 134 214 178 152 218 223 72 185 203 264 242 208 207 190 190 190 179 174 163 159 157 154 147 143 135 109 78 42 17 1 355 353 345 340 340 335 338 341 341 341 347
184 108 160 194 66 14 251 205 173 150 229 225 153 266 39 -0 183 184 187 181 175 159 156 153 157 154 154 140 120 89 48 18 359 345 343 334 330 333 332 335 336 334 332 338
187 172 91 340 5 6 220 196 201 104 59 207 153 261 31 349 78 178 172 174 158 153 144 148 158 159 159 150 134 113 57 352 349 334 339 334 341 347 346 349 348 345 338 337
119 157 178 190 151 129 194 198 195 145 143 210 221 249 227 220 211 191 169 159 156 153 153 157 159 169 160 152 143 157 208 341 352 338 354 350 352 352 352 356 358 356 352 349
135 189 133 236 113 146 199 192 191 197 225 202 242 227 242 208 202 200 169 152 154 161 167 173 169 165 160 156 167 173 339 352 357 4 3 357 355 357 0 3 4 4 5 3
183 184 100 313 166 161 201 252 227 218 232 250 257 264 158 213 152 167 175 167 176 179 178 173 171 163 163 164 176 177 164 72 27 13 11 3 360 3 10 12 11 11 9 7
149 134 127 243 193 172 278 218 223 224 193 228 239 246 151 194 182 190 182 182 185 181 176 172 168 162 158 173 178 175 159 122 63 29 14 11 7 13 17 19 18 15 10 8
151 143 134 169 58 267 256 180 221 230 232 229 250 255 181 204 200 185 195 186 182 175 171 166 157 153 167 171 170 166 153 136 85 46 19 15 15 19 23 24 21 17 14 11
32 135 159 171 199 293 292 191 182 182 240 229 233 248 161 117 80 252 187 190 183 175 169 164 163 169 167 170 167 162 153 138 104 61 35 26 21 26 28 27 23 19 14 11
39 16 179 134 198 242 125 138 127 104 278 225 211 234 144 139 192 231 177 169 156 155 153 150 167 167 163 166 165 162 153 150 130 104 54 39 31 34 35 30 26 23 18 13
136 132 211 211 231 271 178 164 160 133 254 172 194 211 158 191 199 209 148 141 147 146 147 161 164 164 167 167 165 162 160 160 151 144 92 59 44 43 39 38 33 23 20 14
168 169 189 202 216 259 142 51 179 207 151 188 213 185 174 134 119 127 132 134 136 136 142 155 155 162 165 169 169 165 168 165 158 159 129 89 62 53 47 41 36 29 26 14
193 186 171 191 212 175 184 181 190 150 166 205 207 155 142 136 149 143 146 142 147 147 147 155 157 159 166 172 175 168 172 173 164 169 149 107 73 58 54 44 36 31 29 20
245 170 194 111 233 223 208 209 153 168 177 156 176 138 148 147 152 143 146 147 150 152 153 156 155 157 170 175 175 179 175 175 168 173 158 128 95 72 57 54 38 33 24 20
176 156 182 250 256 7 258 234 191 171 138 126 110 129 145 143 156 153 155 153 158 156 158 161 161 165 173 176 177 179 180 177 171 175 166 158 140 87 60 42 28 8 18 4
186 179 187 215 187 210 204 211 186 172 188 167 148 137 147 159 157 155 154 158 157 159 162 164 165 169 174 177 179 180 181 181 176 178 174 175 172 150 79 26 29 23 347 343